Погода в Буранном

Россия / Республика Калмыкия     45°38′25″N   47°31′47″E
темп.,
°C
ветер,
м/с
пор.,
м/с
влажн.,
%
обл.,
%
осадки,
мм/ч
давл.,
гПа
погр.,
м
16 мая, вс
вс1600:00+20в44560 0.0 101547
03:00+20вюв46550 0.0 101468
06:00+23вюв513560 0.0 1013320
09:00+28юв914290 0.0 1014640
12:00+28вюв1014320 0.0 1014633
15:00+29вюв1013250 0.0 1013766
18:00+25вюв814320 0.0 1012527
21:00+22в614430 0.0 1012241
17 мая, пн
пн1700:00+21в512480 0.0 1010190
03:00+21в717450 0.0 1010303
06:00+24вюв918400 0.0 1010618
09:00+27юв1117293 0.0 1011734
12:00+28юв1216254 0.0 1011807
15:00+28юв1116235 0.0 1010885
18:00+26вюв814273 0.0 1009563
21:00+21в511416 0.0 1009176
18 мая, вт
вт1800:00+21в511410 0.0 1008164
03:00+22вюв714490 0.0 1006258
06:00+24юв10174199 0.0 1007628
09:00+25юв111536100 0.0 1007637
12:00+25юв91240100 0.0 1008607
15:00+25юв794569 0.0 1008483
18:00+22юв565987 0.0 1009323
21:00+20юв467384 0.0 1010129
19 мая, ср
ср1900:00+21з4768100 0.0 1009181
03:00+19сз4974100 0.0 1009212
06:00+21сз5868100 0.0 1011349
09:00+25сз774994 0.0 1011823
12:00+29сз7737100 0.0 10121673
15:00+30ссз87275 0.0 10121978
18:00+28сз99335 0.0 10141917
21:00+22сз612435 0.0 1016362
20 мая, чт
чт2000:00+20ссз511481 0.0 1017294
03:00+19с6105396 0.0 1018406
06:00+20ссв67530 0.0 1018399
09:00+25св44340 0.0 1018774
12:00+29св452569 0.0 10171756
15:00+29юв7726100 0.0 1015886
18:00+27вюв610337 0.0 1015551
21:00+22в5135199 0.0 1014252